Location: Krasnoyarskiy Pitomnik
(51.1333°N, 71.6167°E)
Time: 04:41:31
(UTC+00:00)

Transit 4A - Pass Details

Date: 20 April 2024
Orbit: 871 x 971 km, 66.8° (Epoch: 28 May)

Event Time Altitude Azimuth Distance (km) Brightness Sun altitude
Rises 15:18:56 0° 322° (NW) 3,475 12.5 -9.4°
Reaches altitude 10° 15:21:31 10° 328° (NNW) 2,531 11.4 -9.7°
Maximum altitude 15:27:10 49° 43° (NE) 1,122 8.3 -10.4°
Enters shadow 15:32:02 14° 115° (ESE) 2,256 9.3 -11.1°
